This is the latest recevied weather packets stored in our database for station/object KC8QDR-1. If no packets are shown the sender has not sent any weather packets the latest 10 day(s).
| Time | Temp. | Humidity | Pressure | Rain* | Wind** | Luminosity | Snow |
|---|---|---|---|---|---|---|---|
| 1777946325 | 18.89° C | 59% | 1014.5 hPa | 0 mm | 2.68 m/s, 193° | - | - |
| 1777945725 | 19.44° C | 60% | 1014.4 hPa | 0 mm | 2.68 m/s, 194° | - | - |
| 1777945125 | 19.44° C | 59% | 1014.4 hPa | 0 mm | 1.79 m/s, 196° | - | - |
| 1777944525 | 19.44° C | 59% | 1014.3 hPa | 0 mm | 2.68 m/s, 232° | - | - |
| 1777943925 | 19.44° C | 58% | 1014 hPa | 0 mm | 2.24 m/s, 201° | - | - |
| 1777943325 | 19.44° C | 58% | 1013.7 hPa | 0 mm | 2.24 m/s, 194° | - | - |
| 1777942725 | 20° C | 57% | 1013.6 hPa | 0 mm | 2.24 m/s, 196° | - | - |
| 1777941525 | 20° C | 58% | 1013.4 hPa | 0 mm | 2.24 m/s, 189° | - | - |
| 1777940925 | 20° C | 58% | 1013.2 hPa | 0 mm | 1.79 m/s, 180° | - | - |
| 1777940325 | 20.56° C | 56% | 1013.2 hPa | 0 mm | 1.34 m/s, 196° | - | - |
| 1777939725 | 20.56° C | 56% | 1013.1 hPa | 0 mm | 3.13 m/s, 197° | - | - |
| 1777939125 | 20.56° C | 55% | 1013 hPa | 0 mm | 1.79 m/s, 203° | - | - |
| 1777938525 | 21.11° C | 54% | 1012.8 hPa | 0 mm | 2.68 m/s, 191° | - | - |
| 1777937929 | 21.11° C | 55% | 1012.7 hPa | 0 mm | 2.68 m/s, 182° | - | - |
| 1777937325 | 21.11° C | 53% | 1012.7 hPa | 0 mm | 3.58 m/s, 210° | - | - |
| 1777936725 | 21.11° C | 53% | 1012.8 hPa | 0 mm | 2.68 m/s, 189° | - | - |
| 1777936125 | 21.67° C | 54% | 1012.7 hPa | 0 mm | 2.24 m/s, 187° | - | - |
| 1777935525 | 21.67° C | 54% | 1012.9 hPa | 0 mm | 4.92 m/s, 201° | - | - |
| 1777934925 | 21.11° C | 54% | 1012.9 hPa | 0 mm | 4.02 m/s, 217° | - | - |
| 1777934325 | 21.67° C | 54% | 1013 hPa | 0 mm | 2.68 m/s, 190° | - | - |
| 1777933725 | 21.67° C | 52% | 1013.1 hPa | 0 mm | 2.68 m/s, 210° | - | - |
| 1777933125 | 21.67° C | 52% | 1013.2 hPa | 0 mm | 4.02 m/s, 159° | - | - |
| 1777932525 | 21.67° C | 51% | 1013.2 hPa | 0 mm | 3.13 m/s, 196° | - | - |
| 1777931925 | 21.67° C | 50% | 1013.1 hPa | 0 mm | 2.68 m/s, 191° | - | - |
| 1777931325 | 22.22° C | 51% | 1013 hPa | 0 mm | 3.13 m/s, 191° | - | - |
* Rain latest hour (hover to see other rain measurements)
** Current wind speed in m/s (hover to see current wind gust speed)